Year,Month,Day,Hour,Minute,Value (Times are PST for temperature in C)
2021,12,10,00,00,-23.10
2021,12,10,00,01,-23.10
2021,12,10,00,02,-23.10
2021,12,10,00,03,-23.10
2021,12,10,00,04,-23.10
2021,12,10,00,05,-23.10
2021,12,10,00,06,-23.10
2021,12,10,00,07,-23.10
2021,12,10,00,08,-23.10
2021,12,10,00,09,-23.10
2021,12,10,00,10,-23.00
2021,12,10,00,11,-23.00
2021,12,10,00,12,-23.00
2021,12,10,00,13,-23.00
2021,12,10,00,14,-23.00
2021,12,10,00,15,-23.00
2021,12,10,00,16,-22.90
2021,12,10,00,17,-22.90
2021,12,10,00,18,-22.90
2021,12,10,00,19,-22.90
2021,12,10,00,20,-22.90
2021,12,10,00,21,-22.90
2021,12,10,00,22,-22.90
2021,12,10,00,23,-22.90
2021,12,10,00,24,-22.90
2021,12,10,00,25,-22.90
2021,12,10,00,26,-22.90
2021,12,10,00,27,-22.90
2021,12,10,00,28,-22.90
2021,12,10,00,29,-22.90
2021,12,10,00,30,-22.90
2021,12,10,00,31,-22.90
2021,12,10,00,32,-22.90
2021,12,10,00,33,-22.90
2021,12,10,00,34,-22.80
2021,12,10,00,35,-22.80
2021,12,10,00,36,-22.80
2021,12,10,00,37,-22.80
2021,12,10,00,38,-22.80
2021,12,10,00,39,-22.80
2021,12,10,00,40,-22.80
2021,12,10,00,41,-22.80
2021,12,10,00,42,-22.80
2021,12,10,00,43,-22.80
2021,12,10,00,44,-22.80
2021,12,10,00,45,-22.80
2021,12,10,00,46,-22.70
2021,12,10,00,47,-22.70
2021,12,10,00,48,-22.70
2021,12,10,00,49,-22.70
2021,12,10,00,50,-22.70
2021,12,10,00,51,-22.70
2021,12,10,00,52,-22.70
2021,12,10,00,53,-22.70
2021,12,10,00,54,-22.70
2021,12,10,00,55,-22.70
2021,12,10,00,56,-22.70
2021,12,10,00,57,-22.70
2021,12,10,00,58,-22.70
2021,12,10,00,59,-22.70
2021,12,10,01,00,-22.70
2021,12,10,01,01,-22.70
2021,12,10,01,02,-22.60
2021,12,10,01,03,-22.70
2021,12,10,01,04,-22.70
2021,12,10,01,05,-22.70
2021,12,10,01,06,-22.70
2021,12,10,01,07,-22.60
2021,12,10,01,08,-22.60
2021,12,10,01,09,-22.60
2021,12,10,01,10,-22.60
2021,12,10,01,11,-22.60
2021,12,10,01,12,-22.60
2021,12,10,01,13,-22.60
2021,12,10,01,14,-22.60
2021,12,10,01,15,-22.50
2021,12,10,01,16,-22.50
2021,12,10,01,17,-22.50
2021,12,10,01,18,-22.50
2021,12,10,01,19,-22.50
2021,12,10,01,20,-22.50
2021,12,10,01,21,-22.50
2021,12,10,01,22,-22.50
2021,12,10,01,23,-22.50
2021,12,10,01,24,-22.50
2021,12,10,01,25,-22.50
2021,12,10,01,26,-22.50
2021,12,10,01,27,-22.50
2021,12,10,01,28,-22.50
2021,12,10,01,29,-22.50
2021,12,10,01,30,-22.50
2021,12,10,01,31,-22.40
2021,12,10,01,32,-22.40
2021,12,10,01,33,-22.40
2021,12,10,01,34,-22.40
2021,12,10,01,35,-22.40
2021,12,10,01,36,-22.40
2021,12,10,01,37,-22.40
2021,12,10,01,38,-22.40
2021,12,10,01,39,-22.40
2021,12,10,01,40,-22.30
2021,12,10,01,41,-22.30
2021,12,10,01,42,-22.30
2021,12,10,01,43,-22.30
2021,12,10,01,44,-22.30
2021,12,10,01,45,-22.30
2021,12,10,01,46,-22.20
2021,12,10,01,47,-22.20
2021,12,10,01,48,-22.20
2021,12,10,01,49,-22.20
2021,12,10,01,50,-22.20
2021,12,10,01,51,-22.20
2021,12,10,01,52,-22.20
2021,12,10,01,53,-22.20
2021,12,10,01,54,-22.20
2021,12,10,01,55,-22.20
2021,12,10,01,56,-22.20
2021,12,10,01,57,-22.20
2021,12,10,01,58,-22.10
2021,12,10,01,59,-22.10
2021,12,10,02,00,-22.10
2021,12,10,02,01,-22.10
2021,12,10,02,02,-22.10
2021,12,10,02,03,-22.10
2021,12,10,02,04,-22.10
2021,12,10,02,05,-22.10
2021,12,10,02,06,-22.10
2021,12,10,02,07,-22.10
2021,12,10,02,08,-22.10
2021,12,10,02,09,-22.10
2021,12,10,02,10,-22.10
2021,12,10,02,11,-22.10
2021,12,10,02,12,-22.10
2021,12,10,02,13,-22.10
2021,12,10,02,14,-22.10
2021,12,10,02,15,-22.10
2021,12,10,02,16,-22.10
2021,12,10,02,17,-22.10
2021,12,10,02,18,-22.10
2021,12,10,02,19,-22.10
2021,12,10,02,20,-22.00
2021,12,10,02,21,-22.00
2021,12,10,02,22,-22.00
2021,12,10,02,23,-22.00
2021,12,10,02,24,-22.00
2021,12,10,02,25,-22.00
2021,12,10,02,26,-22.00
2021,12,10,02,27,-22.00
2021,12,10,02,28,-22.00
2021,12,10,02,29,-22.00
2021,12,10,02,30,-22.00
2021,12,10,02,31,-22.00
2021,12,10,02,32,-22.00
2021,12,10,02,33,-22.00
2021,12,10,02,34,-22.00
2021,12,10,02,35,-22.00
2021,12,10,02,36,-22.00
2021,12,10,02,37,-22.00
2021,12,10,02,38,-22.00
2021,12,10,02,39,-21.90
2021,12,10,02,40,-22.00
2021,12,10,02,41,-22.00
2021,12,10,02,42,-21.90
2021,12,10,02,43,-21.90
2021,12,10,02,44,-21.90
2021,12,10,02,45,-21.90
2021,12,10,02,46,-21.90
2021,12,10,02,47,-21.90
2021,12,10,02,48,-22.00
2021,12,10,02,49,-22.00
2021,12,10,02,50,-22.00
2021,12,10,02,51,-22.00
2021,12,10,02,52,-22.00
2021,12,10,02,53,-22.00
2021,12,10,02,54,-22.00
2021,12,10,02,55,-22.00
2021,12,10,02,56,-22.00
2021,12,10,02,57,-22.00
2021,12,10,02,58,-22.00
2021,12,10,02,59,-22.00
2021,12,10,03,00,-22.10
2021,12,10,03,01,-22.10
2021,12,10,03,02,-22.10
2021,12,10,03,03,-22.00
2021,12,10,03,04,-22.00
2021,12,10,03,05,-22.00
2021,12,10,03,06,-22.00
2021,12,10,03,07,-22.00
2021,12,10,03,08,-22.00
2021,12,10,03,09,-22.00
2021,12,10,03,10,-22.00
2021,12,10,03,11,-22.00
2021,12,10,03,12,-22.00
2021,12,10,03,13,-22.00
2021,12,10,03,14,-22.00
2021,12,10,03,15,-22.00
2021,12,10,03,16,-22.00
2021,12,10,03,17,-22.00
2021,12,10,03,18,-22.00
2021,12,10,03,19,-22.00
2021,12,10,03,20,-22.00
2021,12,10,03,21,-22.00
2021,12,10,03,22,-22.00
2021,12,10,03,23,-22.00
2021,12,10,03,24,-22.00
2021,12,10,03,25,-22.00
2021,12,10,03,26,-22.00
2021,12,10,03,27,-21.90
2021,12,10,03,28,-21.90
2021,12,10,03,29,-21.90
2021,12,10,03,30,-21.90
2021,12,10,03,31,-21.90
2021,12,10,03,32,-21.90
2021,12,10,03,33,-21.90
2021,12,10,03,34,-21.90
2021,12,10,03,35,-21.90
2021,12,10,03,36,-21.90
2021,12,10,03,37,-21.90
2021,12,10,03,38,-21.90
2021,12,10,03,39,-21.80
2021,12,10,03,40,-21.80
2021,12,10,03,41,-21.80
2021,12,10,03,42,-21.80
2021,12,10,03,43,-21.80
2021,12,10,03,44,-21.80
2021,12,10,03,45,-21.80
2021,12,10,03,46,-21.80
2021,12,10,03,47,-21.80
2021,12,10,03,48,-21.70
2021,12,10,03,49,-21.70
2021,12,10,03,50,-21.70
2021,12,10,03,51,-21.70
2021,12,10,03,52,-21.70
2021,12,10,03,53,-21.70
2021,12,10,03,54,-21.70
2021,12,10,03,55,-21.70
2021,12,10,03,56,-21.70
2021,12,10,03,57,-21.70
2021,12,10,03,58,-21.70
2021,12,10,03,59,-21.70
2021,12,10,04,00,-21.70
2021,12,10,04,01,-21.70
2021,12,10,04,02,-21.70
2021,12,10,04,03,-21.70
2021,12,10,04,04,-21.70
2021,12,10,04,05,-21.70
2021,12,10,04,06,-21.70
2021,12,10,04,07,-21.70
2021,12,10,04,08,-21.70
2021,12,10,04,09,-21.60
2021,12,10,04,10,-21.60
2021,12,10,04,11,-21.60
2021,12,10,04,12,-21.60
2021,12,10,04,13,-21.70
2021,12,10,04,14,-21.70
2021,12,10,04,15,-21.70
2021,12,10,04,16,-21.70
2021,12,10,04,17,-21.70
2021,12,10,04,18,-21.70
2021,12,10,04,19,-21.70
2021,12,10,04,20,-21.70
2021,12,10,04,21,-21.70
2021,12,10,04,22,-21.70
2021,12,10,04,23,-21.70
2021,12,10,04,24,-21.70
2021,12,10,04,25,-21.70
2021,12,10,04,26,-21.80
2021,12,10,04,27,-21.80
2021,12,10,04,28,-21.70
2021,12,10,04,29,-21.80
2021,12,10,04,30,-21.80
2021,12,10,04,31,-21.80
2021,12,10,04,32,-21.80
2021,12,10,04,33,-21.80
2021,12,10,04,34,-21.80
2021,12,10,04,35,-21.80
2021,12,10,04,36,-21.80
2021,12,10,04,37,-21.80
2021,12,10,04,38,-21.80
2021,12,10,04,39,-21.80
2021,12,10,04,40,-21.80
2021,12,10,04,41,-21.80
2021,12,10,04,42,-21.80
2021,12,10,04,43,-21.80
2021,12,10,04,44,-21.80
2021,12,10,04,45,-21.80
2021,12,10,04,46,-21.80
2021,12,10,04,47,-21.80
2021,12,10,04,48,-21.80
2021,12,10,04,49,-21.80
2021,12,10,04,50,-21.80
2021,12,10,04,51,-21.80
2021,12,10,04,52,-21.80
2021,12,10,04,53,-21.80
2021,12,10,04,54,-21.80
2021,12,10,04,55,-21.80
2021,12,10,04,56,-21.80
2021,12,10,04,57,-21.80
2021,12,10,04,58,-21.80
2021,12,10,04,59,-21.80
2021,12,10,05,00,-21.80
2021,12,10,05,01,-21.70
2021,12,10,05,02,-21.70
2021,12,10,05,03,-21.70
2021,12,10,05,04,-21.70
2021,12,10,05,05,-21.70
2021,12,10,05,06,-21.70
2021,12,10,05,07,-21.70
2021,12,10,05,08,-21.70
2021,12,10,05,09,-21.70
2021,12,10,05,10,-21.70
2021,12,10,05,11,-21.70
2021,12,10,05,12,-21.70
2021,12,10,05,13,-21.70
2021,12,10,05,14,-21.60
2021,12,10,05,15,-21.60
2021,12,10,05,16,-21.60
2021,12,10,05,17,-21.60
2021,12,10,05,18,-21.60
2021,12,10,05,19,-21.60
2021,12,10,05,20,-21.60
2021,12,10,05,21,-21.50
2021,12,10,05,22,-21.50
2021,12,10,05,23,-21.50
2021,12,10,05,24,-21.50
2021,12,10,05,25,-21.40
2021,12,10,05,26,-21.40
2021,12,10,05,27,-21.40
2021,12,10,05,28,-21.40
2021,12,10,05,29,-21.30
2021,12,10,05,30,-21.30
2021,12,10,05,31,-21.30
2021,12,10,05,32,-21.30
2021,12,10,05,33,-21.30
2021,12,10,05,34,-21.30
2021,12,10,05,35,-21.20
2021,12,10,05,36,-21.20
2021,12,10,05,37,-21.20
2021,12,10,05,38,-21.10
2021,12,10,05,39,-21.10
2021,12,10,05,40,-21.10
2021,12,10,05,41,-21.10
2021,12,10,05,42,-21.10
2021,12,10,05,43,-21.00
2021,12,10,05,44,-21.00
2021,12,10,05,45,-20.90
2021,12,10,05,46,-20.90
2021,12,10,05,47,-20.90
2021,12,10,05,48,-20.80
2021,12,10,05,49,-20.80
2021,12,10,05,50,-20.70
2021,12,10,05,51,-20.70
2021,12,10,05,52,-20.70
2021,12,10,05,53,-20.60
2021,12,10,05,54,-20.50
2021,12,10,05,55,-20.50
2021,12,10,05,56,-20.40
2021,12,10,05,57,-20.40
2021,12,10,05,58,-20.40
2021,12,10,05,59,-20.30
2021,12,10,06,00,-20.30
2021,12,10,06,01,-20.30
2021,12,10,06,02,-20.30
2021,12,10,06,03,-20.20
2021,12,10,06,04,-20.20
2021,12,10,06,05,-20.20
2021,12,10,06,06,-20.20
2021,12,10,06,07,-20.10
2021,12,10,06,08,-20.10
2021,12,10,06,09,-20.10
2021,12,10,06,10,-20.10
2021,12,10,06,11,-20.10
2021,12,10,06,12,-20.10
2021,12,10,06,13,-20.10
2021,12,10,06,14,-20.10
2021,12,10,06,15,-20.10
2021,12,10,06,16,-20.10
2021,12,10,06,17,-20.10
2021,12,10,06,18,-20.00
2021,12,10,06,19,-20.00
2021,12,10,06,20,-19.90
2021,12,10,06,21,-19.90
2021,12,10,06,22,-19.90
2021,12,10,06,23,-19.80
2021,12,10,06,24,-19.80
2021,12,10,06,25,-19.80
2021,12,10,06,26,-19.70
2021,12,10,06,27,-19.70
2021,12,10,06,28,-19.70
2021,12,10,06,29,-19.60
2021,12,10,06,30,-19.50
2021,12,10,06,31,-19.50
2021,12,10,06,32,-19.40
2021,12,10,06,33,-19.40
2021,12,10,06,34,-19.40
2021,12,10,06,35,-19.40
2021,12,10,06,36,-19.30
2021,12,10,06,37,-19.30
2021,12,10,06,38,-19.30
2021,12,10,06,39,-19.20
2021,12,10,06,40,-19.20
2021,12,10,06,41,-19.20
2021,12,10,06,42,-19.20
2021,12,10,06,43,-19.10
2021,12,10,06,44,-19.10
2021,12,10,06,45,-19.10
2021,12,10,06,46,-19.00
2021,12,10,06,47,-19.00
2021,12,10,06,48,-19.00
2021,12,10,06,49,-19.00
2021,12,10,06,50,-18.90
2021,12,10,06,51,-18.90
2021,12,10,06,52,-18.90
2021,12,10,06,53,-18.80
2021,12,10,06,54,-18.80
2021,12,10,06,55,-18.80
2021,12,10,06,56,-18.70
2021,12,10,06,57,-18.70
2021,12,10,06,58,-18.60
2021,12,10,06,59,-18.60
2021,12,10,07,00,-18.50
2021,12,10,07,01,-18.50
2021,12,10,07,02,-18.40
2021,12,10,07,03,-18.40
2021,12,10,07,04,-18.40
2021,12,10,07,05,-18.40
2021,12,10,07,06,-18.30
2021,12,10,07,07,-18.30
2021,12,10,07,08,-18.30
2021,12,10,07,09,-18.30
2021,12,10,07,10,-18.20
2021,12,10,07,11,-18.20
2021,12,10,07,12,-18.20
2021,12,10,07,13,-18.20
2021,12,10,07,14,-18.20
2021,12,10,07,15,-18.20
2021,12,10,07,16,-18.10
2021,12,10,07,17,-18.10
2021,12,10,07,18,-18.10
2021,12,10,07,19,-18.10
2021,12,10,07,20,-18.10
2021,12,10,07,21,-18.10
2021,12,10,07,22,-18.10
2021,12,10,07,23,-18.10
2021,12,10,07,24,-18.00
2021,12,10,07,25,-18.00
2021,12,10,07,26,-18.00
2021,12,10,07,27,-18.00
2021,12,10,07,28,-18.00
2021,12,10,07,29,-18.00
2021,12,10,07,30,-18.00
2021,12,10,07,31,-17.90
2021,12,10,07,32,-17.90
2021,12,10,07,33,-17.90
2021,12,10,07,34,-17.90
2021,12,10,07,35,-17.90
2021,12,10,07,36,-17.90
2021,12,10,07,37,-18.00
2021,12,10,07,38,-18.00
2021,12,10,07,39,-18.10
2021,12,10,07,40,-18.10
2021,12,10,07,41,-18.20
2021,12,10,07,42,-18.20
2021,12,10,07,43,-18.20
2021,12,10,07,44,-18.30
2021,12,10,07,45,-18.30
2021,12,10,07,46,-18.30
2021,12,10,07,47,-18.30
2021,12,10,07,48,-18.30
2021,12,10,07,49,-18.30
2021,12,10,07,50,-18.30
2021,12,10,07,51,-18.30
2021,12,10,07,52,-18.30
2021,12,10,07,53,-18.30
2021,12,10,07,54,-18.30
2021,12,10,07,55,-18.20
2021,12,10,07,56,-18.20
2021,12,10,07,57,-18.10
2021,12,10,07,58,-18.10
2021,12,10,07,59,-18.00
2021,12,10,08,00,-17.90
2021,12,10,08,01,-17.80
2021,12,10,08,02,-17.80
2021,12,10,08,03,-17.70
2021,12,10,08,04,-17.70
2021,12,10,08,05,-17.70
2021,12,10,08,06,-17.60
2021,12,10,08,07,-17.60
2021,12,10,08,08,-17.60
2021,12,10,08,09,-17.50
2021,12,10,08,10,-17.50
2021,12,10,08,11,-17.50
2021,12,10,08,12,-17.40
2021,12,10,08,13,-17.40
2021,12,10,08,14,-17.40
2021,12,10,08,15,-17.40
2021,12,10,08,16,-17.30
2021,12,10,08,17,-17.30
2021,12,10,08,18,-17.30
2021,12,10,08,19,-17.30
2021,12,10,08,20,-17.20
2021,12,10,08,21,-17.20
2021,12,10,08,22,-17.20
2021,12,10,08,23,-17.20
2021,12,10,08,24,-17.20
2021,12,10,08,25,-17.20
2021,12,10,08,26,-17.20
2021,12,10,08,27,-17.10
2021,12,10,08,28,-17.10
2021,12,10,08,29,-17.10
2021,12,10,08,30,-17.10
2021,12,10,08,31,-17.10
2021,12,10,08,32,-17.10
2021,12,10,08,33,-17.10
2021,12,10,08,34,-17.10
2021,12,10,08,35,-17.10
2021,12,10,08,36,-17.00
2021,12,10,08,37,-17.00
2021,12,10,08,38,-17.00
2021,12,10,08,39,-17.00
2021,12,10,08,40,-17.00
2021,12,10,08,41,-17.00
2021,12,10,08,42,-17.00
2021,12,10,08,43,-16.90
2021,12,10,08,44,-16.90
2021,12,10,08,45,-16.90
2021,12,10,08,46,-16.90
2021,12,10,08,47,-16.90
2021,12,10,08,48,-16.90
2021,12,10,08,49,-16.90
2021,12,10,08,50,-16.90
2021,12,10,08,51,-16.90
2021,12,10,08,52,-16.90
2021,12,10,08,53,-16.90
2021,12,10,08,54,-16.90
2021,12,10,08,55,-16.80
2021,12,10,08,56,-16.80
2021,12,10,08,57,-16.80
2021,12,10,08,58,-16.80
2021,12,10,08,59,-16.80
2021,12,10,09,00,-16.80
2021,12,10,09,01,-16.80
2021,12,10,09,02,-16.80
2021,12,10,09,03,-16.70
2021,12,10,09,04,-16.70
2021,12,10,09,05,-16.70
2021,12,10,09,06,-16.70
2021,12,10,09,07,-16.70
2021,12,10,09,08,-16.70
2021,12,10,09,09,-16.70
2021,12,10,09,10,-16.70
2021,12,10,09,11,-16.70
2021,12,10,09,12,-16.70
2021,12,10,09,13,-16.70
2021,12,10,09,14,-16.60
2021,12,10,09,15,-16.60
2021,12,10,09,16,-16.60
2021,12,10,09,17,-16.60
2021,12,10,09,18,-16.60
2021,12,10,09,19,-16.60
2021,12,10,09,20,-16.60
2021,12,10,09,21,-16.60
2021,12,10,09,22,-16.60
2021,12,10,09,23,-16.50
2021,12,10,09,24,-16.50
2021,12,10,09,25,-16.50
2021,12,10,09,26,-16.50
2021,12,10,09,27,-16.50
2021,12,10,09,28,-16.40
2021,12,10,09,29,-16.40
2021,12,10,09,30,-16.40
2021,12,10,09,31,-16.40
2021,12,10,09,32,-16.30
2021,12,10,09,33,-16.30
2021,12,10,09,34,-16.30
2021,12,10,09,35,-16.30
2021,12,10,09,36,-16.30
2021,12,10,09,37,-16.30
2021,12,10,09,38,-16.30
2021,12,10,09,39,-16.30
2021,12,10,09,40,-16.30
2021,12,10,09,41,-16.30
2021,12,10,09,42,-16.20
2021,12,10,09,43,-16.20
2021,12,10,09,44,-16.20
2021,12,10,09,45,-16.20
2021,12,10,09,46,-16.20
2021,12,10,09,47,-16.20
2021,12,10,09,48,-16.20
2021,12,10,09,49,-16.20
2021,12,10,09,50,-16.20
2021,12,10,09,51,-16.20
2021,12,10,09,52,-16.20
2021,12,10,09,53,-16.10
2021,12,10,09,54,-16.10
2021,12,10,09,55,-16.10
2021,12,10,09,56,-16.10
2021,12,10,09,57,-16.10
2021,12,10,09,58,-16.10
2021,12,10,09,59,-16.10
2021,12,10,10,00,-16.10
2021,12,10,10,01,-16.10
2021,12,10,10,02,-16.10
2021,12,10,10,03,-16.10
2021,12,10,10,04,-16.10
2021,12,10,10,05,-16.10
2021,12,10,10,06,-16.10
2021,12,10,10,07,-16.00
2021,12,10,10,08,-16.00
2021,12,10,10,09,-16.00
2021,12,10,10,10,-15.90
2021,12,10,10,11,-15.90
2021,12,10,10,12,-15.90
2021,12,10,10,13,-15.90
2021,12,10,10,14,-15.90
2021,12,10,10,15,-15.80
2021,12,10,10,16,-15.80
2021,12,10,10,17,-15.80
2021,12,10,10,18,-15.80
2021,12,10,10,19,-15.80
2021,12,10,10,20,-15.80
2021,12,10,10,21,-15.70
2021,12,10,10,22,-15.70
2021,12,10,10,23,-15.70
2021,12,10,10,24,-15.70
2021,12,10,10,25,-15.70
2021,12,10,10,26,-15.60
2021,12,10,10,27,-15.60
2021,12,10,10,28,-15.60
2021,12,10,10,29,-15.60
2021,12,10,10,30,-15.60
2021,12,10,10,31,-15.50
2021,12,10,10,32,-15.50
2021,12,10,10,33,-15.40
2021,12,10,10,34,-15.40
2021,12,10,10,35,-15.40
2021,12,10,10,36,-15.40
2021,12,10,10,37,-15.40
2021,12,10,10,38,-15.40
2021,12,10,10,39,-15.40
2021,12,10,10,40,-15.40
2021,12,10,10,41,-15.30
2021,12,10,10,42,-15.30
2021,12,10,10,43,-15.30
2021,12,10,10,44,-15.30
2021,12,10,10,45,-15.30
2021,12,10,10,46,-15.30
2021,12,10,10,47,-15.30
2021,12,10,10,48,-15.30
2021,12,10,10,49,-15.30
2021,12,10,10,50,-15.30
2021,12,10,10,51,-15.20
2021,12,10,10,52,-15.20
2021,12,10,10,53,-15.20
2021,12,10,10,54,-15.20
2021,12,10,10,55,-15.20
2021,12,10,10,56,-15.20
2021,12,10,10,57,-15.20
2021,12,10,10,58,-15.20
2021,12,10,10,59,-15.20
2021,12,10,11,00,-15.10
2021,12,10,11,01,-15.10
2021,12,10,11,02,-15.10
2021,12,10,11,03,-15.10
2021,12,10,11,04,-15.10
2021,12,10,11,05,-15.10
2021,12,10,11,06,-15.00
2021,12,10,11,07,-15.00
2021,12,10,11,08,-15.00
2021,12,10,11,09,-15.00
2021,12,10,11,10,-14.90
2021,12,10,11,11,-14.90
2021,12,10,11,12,-14.90
2021,12,10,11,13,-14.90
2021,12,10,11,14,-14.90
2021,12,10,11,15,-14.90
2021,12,10,11,16,-14.80
2021,12,10,11,17,-14.80
2021,12,10,11,18,-14.80
2021,12,10,11,19,-14.80
2021,12,10,11,20,-14.80
2021,12,10,11,21,-14.80
2021,12,10,11,22,-14.80
2021,12,10,11,23,-14.80
2021,12,10,11,24,-14.70
2021,12,10,11,25,-14.70
2021,12,10,11,26,-14.70
2021,12,10,11,27,-14.70
2021,12,10,11,28,-14.70
2021,12,10,11,29,-14.70
2021,12,10,11,30,-14.60
2021,12,10,11,31,-14.60
2021,12,10,11,32,-14.60
2021,12,10,11,33,-14.50
2021,12,10,11,34,-14.50
2021,12,10,11,35,-14.50
2021,12,10,11,36,-14.40
2021,12,10,11,37,-14.40
2021,12,10,11,38,-14.40
2021,12,10,11,39,-14.30
2021,12,10,11,40,-14.30
2021,12,10,11,41,-14.30
2021,12,10,11,42,-14.30
2021,12,10,11,43,-14.30
2021,12,10,11,44,-14.20
2021,12,10,11,45,-14.20
2021,12,10,11,46,-14.20
2021,12,10,11,47,-14.20
2021,12,10,11,48,-14.20
2021,12,10,11,49,-14.20
2021,12,10,11,50,-14.20
2021,12,10,11,51,-14.20
2021,12,10,11,52,-14.20
2021,12,10,11,53,-14.20
2021,12,10,11,54,-14.10
2021,12,10,11,55,-14.10
2021,12,10,11,56,-14.10
2021,12,10,11,57,-14.10
2021,12,10,11,58,-14.10
2021,12,10,11,59,-14.00
2021,12,10,12,00,-14.00
2021,12,10,12,01,-14.00
2021,12,10,12,02,-14.00
2021,12,10,12,03,-14.00
2021,12,10,12,04,-14.00
2021,12,10,12,05,-13.90
2021,12,10,12,06,-13.90
2021,12,10,12,07,-13.90
2021,12,10,12,08,-13.90
2021,12,10,12,09,-13.80
2021,12,10,12,10,-13.80
2021,12,10,12,11,-13.80
2021,12,10,12,12,-13.80
2021,12,10,12,13,-13.80
2021,12,10,12,14,-13.80
2021,12,10,12,15,-13.80
2021,12,10,12,16,-13.80
2021,12,10,12,17,-13.80
2021,12,10,12,18,-13.80
2021,12,10,12,19,-13.80
2021,12,10,12,20,-13.80
2021,12,10,12,21,-13.70
2021,12,10,12,22,-13.70
2021,12,10,12,23,-13.70
2021,12,10,12,24,-13.70
2021,12,10,12,25,-13.70
2021,12,10,12,26,-13.70
2021,12,10,12,27,-13.70
2021,12,10,12,28,-13.70
2021,12,10,12,29,-13.70
2021,12,10,12,30,-13.60
2021,12,10,12,31,-13.60
2021,12,10,12,32,-13.60
2021,12,10,12,33,-13.60
2021,12,10,12,34,-13.60
2021,12,10,12,35,-13.60
2021,12,10,12,36,-13.60
2021,12,10,12,37,-13.50
2021,12,10,12,38,-13.50
2021,12,10,12,39,-13.50
2021,12,10,12,40,-13.50
2021,12,10,12,41,-13.50
2021,12,10,12,42,-13.50
2021,12,10,12,43,-13.40
2021,12,10,12,44,-13.40
2021,12,10,12,45,-13.40
2021,12,10,12,46,-13.40
2021,12,10,12,47,-13.40
2021,12,10,12,48,-13.40
2021,12,10,12,49,-13.40
2021,12,10,12,50,-13.30
2021,12,10,12,51,-13.30
2021,12,10,12,52,-13.30
2021,12,10,12,53,-13.30
2021,12,10,12,54,-13.30
2021,12,10,12,55,-13.30
2021,12,10,12,56,-13.30
2021,12,10,12,57,-13.30
2021,12,10,12,58,-13.30
2021,12,10,12,59,-13.20
2021,12,10,13,00,-13.20
2021,12,10,13,01,-13.20
2021,12,10,13,02,-13.20
2021,12,10,13,03,-13.20
2021,12,10,13,04,-13.20
2021,12,10,13,05,-13.20
2021,12,10,13,06,-13.20
2021,12,10,13,07,-13.20
2021,12,10,13,08,-13.20
2021,12,10,13,09,-13.20
2021,12,10,13,10,-13.20
2021,12,10,13,11,-13.20
2021,12,10,13,12,-13.10
2021,12,10,13,13,-13.10
2021,12,10,13,14,-13.10
2021,12,10,13,15,-13.10
2021,12,10,13,16,-13.10
2021,12,10,13,17,-13.10
2021,12,10,13,18,-13.00
2021,12,10,13,19,-13.00
2021,12,10,13,20,-13.00
2021,12,10,13,21,-13.00
2021,12,10,13,22,-13.00
2021,12,10,13,23,-12.90
2021,12,10,13,24,-12.90
2021,12,10,13,25,-12.90
2021,12,10,13,26,-12.90
2021,12,10,13,27,-12.90
2021,12,10,13,28,-12.90
2021,12,10,13,29,-12.90
2021,12,10,13,30,-12.90
2021,12,10,13,31,-12.90
2021,12,10,13,32,-12.80
2021,12,10,13,33,-12.80
2021,12,10,13,34,-12.80
2021,12,10,13,35,-12.80
2021,12,10,13,36,-12.80
2021,12,10,13,37,-12.80
2021,12,10,13,38,-12.80
2021,12,10,13,39,-12.80
2021,12,10,13,40,-12.80
2021,12,10,13,41,-12.80
2021,12,10,13,42,-12.80
2021,12,10,13,43,-12.80
2021,12,10,13,44,-12.80
2021,12,10,13,45,-12.80
2021,12,10,13,46,-12.80
2021,12,10,13,47,-12.70
2021,12,10,13,48,-12.70
2021,12,10,13,49,-12.70
2021,12,10,13,50,-12.60
2021,12,10,13,51,-12.60
2021,12,10,13,52,-12.60
2021,12,10,13,53,-12.50
2021,12,10,13,54,-12.50
2021,12,10,13,55,-12.50
2021,12,10,13,56,-12.50
2021,12,10,13,57,-12.50
2021,12,10,13,58,-12.50
2021,12,10,13,59,-12.50
2021,12,10,14,00,-12.40
2021,12,10,14,01,-12.40
2021,12,10,14,02,-12.40
2021,12,10,14,03,-12.40
2021,12,10,14,04,-12.40
2021,12,10,14,05,-12.40
2021,12,10,14,06,-12.40
2021,12,10,14,07,-12.40
2021,12,10,14,08,-12.40
2021,12,10,14,09,-12.40
2021,12,10,14,10,-12.40
2021,12,10,14,11,-12.30
2021,12,10,14,12,-12.30
2021,12,10,14,13,-12.30
2021,12,10,14,14,-12.30
2021,12,10,14,15,-12.20
2021,12,10,14,16,-12.20
2021,12,10,14,17,-12.20
2021,12,10,14,18,-12.20
2021,12,10,14,19,-12.10
2021,12,10,14,20,-12.10
2021,12,10,14,21,-12.10
2021,12,10,14,22,-12.10
2021,12,10,14,23,-12.10
2021,12,10,14,24,-12.00
2021,12,10,14,25,-12.00
2021,12,10,14,26,-12.00
2021,12,10,14,27,-12.00
2021,12,10,14,28,-12.00
2021,12,10,14,29,-12.00
2021,12,10,14,30,-12.00
2021,12,10,14,31,-12.00
2021,12,10,14,32,-11.90
2021,12,10,14,33,-11.90
2021,12,10,14,34,-11.90
2021,12,10,14,35,-11.90
2021,12,10,14,36,-11.90
2021,12,10,14,37,-12.00
2021,12,10,14,38,-12.00
2021,12,10,14,39,-12.00
2021,12,10,14,40,-12.00
2021,12,10,14,41,-12.10
2021,12,10,14,42,-12.10
2021,12,10,14,43,-12.10
2021,12,10,14,44,-12.10
2021,12,10,14,45,-12.10
2021,12,10,14,46,-12.10
2021,12,10,14,47,-12.10
2021,12,10,14,48,-12.10
2021,12,10,14,49,-12.10
2021,12,10,14,50,-12.10
2021,12,10,14,51,-12.10
2021,12,10,14,52,-12.10
2021,12,10,14,53,-12.10
2021,12,10,14,54,-12.10
2021,12,10,14,55,-12.10
2021,12,10,14,56,-12.10
2021,12,10,14,57,-12.10
2021,12,10,14,58,-12.00
2021,12,10,14,59,-12.00
2021,12,10,15,00,-12.00
2021,12,10,15,01,-12.00
2021,12,10,15,02,-12.00
2021,12,10,15,03,-12.00
2021,12,10,15,04,-12.00
2021,12,10,15,05,-12.00
2021,12,10,15,06,-12.00
2021,12,10,15,07,-12.00
2021,12,10,15,08,-12.00
2021,12,10,15,09,-12.00
2021,12,10,15,10,-12.00
2021,12,10,15,11,-12.00
2021,12,10,15,12,-12.00
2021,12,10,15,13,-12.00
2021,12,10,15,14,-12.00
2021,12,10,15,15,-11.90
2021,12,10,15,16,-11.90
2021,12,10,15,17,-11.90
2021,12,10,15,18,-11.90
2021,12,10,15,19,-12.00
2021,12,10,15,20,-11.90
2021,12,10,15,21,-11.90
2021,12,10,15,22,-11.90
2021,12,10,15,23,-11.90
2021,12,10,15,24,-11.90
2021,12,10,15,25,-11.90
2021,12,10,15,26,-11.90
2021,12,10,15,27,-11.90
2021,12,10,15,28,-11.90
2021,12,10,15,29,-11.90
2021,12,10,15,30,-12.00
2021,12,10,15,31,-12.00
2021,12,10,15,32,-12.00
2021,12,10,15,33,-11.90
2021,12,10,15,34,-11.90
2021,12,10,15,35,-11.90
2021,12,10,15,36,-11.90
2021,12,10,15,37,-11.90
2021,12,10,15,38,-11.90
2021,12,10,15,39,-11.90
2021,12,10,15,40,-11.90
2021,12,10,15,41,-11.90
2021,12,10,15,42,-11.90
2021,12,10,15,43,-11.90
2021,12,10,15,44,-11.90
2021,12,10,15,45,-11.90
2021,12,10,15,46,-11.90
2021,12,10,15,47,-11.90
2021,12,10,15,48,-11.90
2021,12,10,15,49,-11.90
2021,12,10,15,50,-11.90
2021,12,10,15,51,-11.90
2021,12,10,15,52,-11.90
2021,12,10,15,53,-11.90
2021,12,10,15,54,-11.80
2021,12,10,15,55,-11.80
2021,12,10,15,56,-11.80
2021,12,10,15,57,-11.80
2021,12,10,15,58,-11.80
2021,12,10,15,59,-11.80
2021,12,10,16,00,-11.80
2021,12,10,16,01,-11.80
2021,12,10,16,02,-11.80
2021,12,10,16,03,-11.80
2021,12,10,16,04,-11.80
2021,12,10,16,05,-11.80
2021,12,10,16,06,-11.80
2021,12,10,16,07,-11.80
2021,12,10,16,08,-11.80
2021,12,10,16,09,-11.80
2021,12,10,16,10,-11.80
2021,12,10,16,11,-11.80
2021,12,10,16,12,-11.70
2021,12,10,16,13,-11.70
2021,12,10,16,14,-11.70
2021,12,10,16,15,-11.70
2021,12,10,16,16,-11.70
2021,12,10,16,17,-11.70
2021,12,10,16,18,-11.70
2021,12,10,16,19,-11.70
2021,12,10,16,20,-11.70
2021,12,10,16,21,-11.70
2021,12,10,16,22,-11.70
2021,12,10,16,23,-11.70
2021,12,10,16,24,-11.70
2021,12,10,16,25,-11.70
2021,12,10,16,26,-11.70
2021,12,10,16,27,-11.70
2021,12,10,16,28,-11.70
2021,12,10,16,29,-11.70
2021,12,10,16,30,-11.70
2021,12,10,16,31,-11.70
2021,12,10,16,32,-11.70
2021,12,10,16,33,-11.70
2021,12,10,16,34,-11.70
2021,12,10,16,35,-11.70
2021,12,10,16,36,-11.70